Погода в Шокше

Россия / Республика Мордовия     54°46′11″N   42°31′15″E
темп.,
°C
ветер,
м/с
пор.,
м/с
влажн.,
%
обл.,
%
осадки,
мм/ч
давл.,
гПа
погр.,
м
20 января, ср
ср2000:00−17зюз2397100 0.3 101767
03:00−16з3597100 0.4 1017166
06:00−16зюз3597100 0.4 1016177
09:00−15з3696100 0.6 1017201
12:00−13з359499 0.1 1018258
15:00−12з4695100 0.1 1018295
18:00−14зюз479695 0.1 1020146
21:00−15з369789 0.1 1020111
21 января, чт
чт2100:00−16з469794 0.0 1021102
03:00−17з469788 0.1 1022118
06:00−18зюз479878 0.0 1022131
09:00−18юз479489 0.0 1023185
12:00−15юз5890100 0.0 1021260
15:00−13ююз5991100 0.0 1019326
18:00−13ююз61395100 0.6 1016452
21:00−11юз51194100 1.9 1015591
22 января, пт
пт2200:00−10юз4895100 0.4 1015295
03:00−10зюз3396100 0.6 101574
06:00−9юз2296100 0.1 101533
09:00−7ю2497100 0.4 1015125
12:00−3ююз4697100 0.6 1014273
15:00+1юз61099100 0.9 1013382
18:00+1юз4998100 0.3 1013323
21:000юз51194100 0.3 1013403
23 января, сб
сб2300:00+1юз51194100 0.0 1013545
03:00+1ююз61298100 0.3 1012435
06:00+1юз61197100 0.6 1012496
09:00+1юз51096100 0.6 1013478
12:00+1юз61297100 0.0 1013546
15:00+1юз61297100 0.0 1013515
18:00+1юз51197100 0.0 1013420
21:00+1ююз61398100 0.0 1014366
24 января, вс
вс2400:00+1юз51199100 0.1 1014360
03:00+1ююз51199100 0.6 1014315
06:00+1юз51199100 0.7 1014325
09:00+1ююз4999100 0.7 1015218
12:00+1ю410100100 0.0 1016320
15:00+1ю4899100 0.0 1015262
18:00+1ю511100100 0.4 1016382
21:00+1ю51398100 1.0 1016374